Regional Weather Roundup
Issued by NWS

Home | Current Version | Previous Version | Graphics & Text | Print | Product List | Glossary On
Versions: 1 2 3 4 5 6 7 8 9 10 11 12 13 14 15 16 17 18 19 20 21 22 23 24 25 26 27 28 29 30 31 32 33 34 35 36 37 38 39 40 41 42 43 44 45 46 47 48 49 50
000
ASUS43 KDTX 222210
RWRMI
MICHIGAN HOURLY REGIONAL WEATHER ROUNDUP
NATIONAL WEATHER SERVICE DETROIT/PONTIAC MI
ISSUED BY NATIONAL WEATHER SERVICE GRAND RAPIDS MI
600 PM EDT MON MAY 22 2017

NOTE: "FAIR" INDICATES FEW OR NO CLOUDS BELOW 12,000 FEET WITH NO
SIGNIFICANT WEATHER AND/OR OBSTRUCTION TO VISIBILITY.

MIZ047>049-052>055-059>063-066>070-074>076-081>083-222300-
SOUTHEAST LOWER MICHIGAN

CITY           SKY/WX    TMP DP  RH WIND       PRES   REMARKS
ADRIAN         SUNNY     68  45  43 W12       29.99S
ALMA           MOSUNNY   65  44  46 SW14G20   29.93S
ANN ARBOR      MOSUNNY   68  48  48 SW13      29.96F
BAD AXE        SUNNY     65  42  42 W12       29.90S
DETROIT CITY   SUNNY     70  43  37 W15G22    29.95S
DETROIT        MOSUNNY   70  45  40 W14       29.96F
FLINT          MOSUNNY   68  43  40 W18       29.94S
GROSSE ILE     MOSUNNY   70  46  42 W13       29.96S
HILLSDALE      PTSUNNY   66  45  45 SW8G18    29.98S
HOWELL         SUNNY     68  40  36 W13       29.96S

CITY           SKY/WX    TMP DP  RH WIND       PRES   REMARKS
JACKSON        PTSUNNY   68  46  45 SW16      29.97S
LANSING        SUNNY     69  43  38 W13G24    29.95F
MASON          MOSUNNY   68  47  46 W9        29.96S
MONROE         MOSUNNY   70  46  42 W9        29.97S
MT. CLEMENS    MOSUNNY   70  44  39 W17G23    29.92F
PONTIAC        MOSUNNY   68  41  37 W17       29.94S
PORT HOPE        N/A     66  42  41 W10G18    29.88S
PORT HURON     SUNNY     68  39  34 SW8G18    29.94S
TRI CITIES     SUNNY     67  45  45 SW21G26   29.91S
YPSILANTI      MOSUNNY   70  46  42 W15       29.97S
$$
MIZ043>046-050>051-056>058-064>065-071>073-077>080-222300-
SOUTHWEST LOWER MICHIGAN

CITY           SKY/WX    TMP DP  RH WIND       PRES   REMARKS
BATTLE CREEK   MOSUNNY   70  46  42 W15G22    29.96F
BENTON HARBOR  SUNNY     72  43  35 SW15      29.93F
BIG RAPIDS     CLOUDY    60  43  53 SW15G25   29.91S
COLDWATER      MOSUNNY   67  45  45 SW12      29.97F
HOLLAND        PTSUNNY   66  45  46 SW13      29.94F
GRAND RAPIDS   CLOUDY    67  46  47 W18       29.94S
KALAMAZOO      MOSUNNY   70  44  39 SW9       29.95F
MARSHALL       PTSUNNY   68  46  44 SW7G18    29.95F
MOUNT PLEASANT MOSUNNY   65  43  43 SW16G22   29.91R
MUSKEGON       CLOUDY    62  44  51 SW15      29.93F
STURGIS        SUNNY     68  48  48 SW9       29.96F
$$
MIZ016>042-222300-
NORTHERN LOWER MICHIGAN

CITY           SKY/WX    TMP DP  RH WIND       PRES   REMARKS
ALPENA         MOSUNNY   62  42  47 W15G26    29.87R
BEAVER ISLAND  PTSUNNY   56  43  61 SW15G23   29.84S
BELLAIRE       SUNNY     62  41  45 SW7       29.87S
CADILLAC       MOSUNNY   63  43  48 SW16      29.88S
CHARLEVOIX     MOSUNNY   60  43  54 SW12G20   29.88S
GAYLORD        MOSUNNY   59  39  47 SW21      29.87S
HOUGHTON LAKE  MOSUNNY   61  41  47 W16       29.89S
MANISTEE       PTSUNNY   64  47  53 S14G21    29.86
OSCODA         SUNNY     67  37  33 W22G30    29.86F
PELLSTON       SUNNY     59  40  49 W17G26    29.85F
TRAVERSE CITY  MOSUNNY   65  42  43 SW13G21   29.84F
LUDINGTON      SUNNY     61  47  59 S18G31    29.88S
$$
MIZ007>008-015-222300-
EASTERN UPPER MICHIGAN

CITY           SKY/WX    TMP DP  RH WIND       PRES   REMARKS
KINROSS        CLOUDY    52  44  74 W14G20    29.83S
MACKINAC ISLAN SUNNY     53  45  74 SW16G24   29.84S
NEWBERRY       CLOUDY    53  48  84 SW9       29.82S
S. S. MARIE    LGT RAIN  50  48  93 CALM      29.82S FOG
$$
MIZ004>006-011>014-085-222300-
CENTRAL UPPER MICHIGAN

CITY           SKY/WX    TMP DP  RH WIND       PRES   REMARKS
MANISTIQUE     CLOUDY    46  43  88 SW9       29.83R
ESCANABA       LGT RAIN  53  46  77 CALM      29.80S
MENOMINEE      PTSUNNY   65  43  44 SW8G16    29.78F
SAWYER-GWINN   CLOUDY    55  41  58 W8        29.79S
$$
MIZ001>003-009>011-084-222300-
WESTERN UPPER MICHIGAN

CITY           SKY/WX    TMP DP  RH WIND       PRES   REMARKS
IRON MOUNTAIN  CLOUDY    55  41  59 W9        29.79R
HOUGHTON       CLOUDY    52  41  66 W15       29.77S
COPPER HARBOR    N/A     54  42  64 VRB7      29.77S
IRONWOOD       LGT RAIN  52  44  74 W12       29.81S
$$

ABBREVIATIONS USED IN REMARKS
   TC - TEMPERATURE IN CELSIUS
  WCI - WIND CHILL INDEX
   HX - HEAT INDEX
  VSB - VISIBILITY





USA.gov is the U.S. government's official web portal to all federal, state and local government web resources and services.